• In Deutschland
  • Länderverzeichnis
  • Für 7 Tage
  • Wassertemperatur
  • Satellitenkarten
  • Wetterkarte
  • Widgets
  • user-avatar
    Anmelden

    Stündliche Wetter Korçe

    Heute, 24 Juli, Montag

    Zeit Temperatur Niederschläge Wind Luftdruck Luftfeuchtigkeit
    00:00 +20°C° 0 mm 1 m/S 667 mmHg 66%
    01:00 +19°C° 0 mm 1 m/S 666 mmHg 67%
    02:00 +19°C° 0 mm 1 m/S 666 mmHg 66%
    03:00 +19°C° 0 mm 1 m/S 666 mmHg 64%
    04:00 +18°C° 0 mm 1 m/S 666 mmHg 63%
    05:00 +20°C° 0 mm 1 m/S 666 mmHg 57%
    06:00 +20°C° 0 mm 0 m/S 667 mmHg 52%
    07:00 +22°C° 0 mm 0 m/S 667 mmHg 46%
    08:00 +26°C° 0 mm 1 m/S 667 mmHg 41%
    09:00 +28°C° 0 mm 1 m/S 668 mmHg 36%
    10:00 +30°C° 0 mm 1 m/S 668 mmHg 31%
    11:00 +30°C° 0 mm 2 m/S 668 mmHg 29%
    12:00 +31°C° 0 mm 2 m/S 668 mmHg 28%
    13:00 +31°C° 0 mm 2 m/S 667 mmHg 27%
    14:00 +31°C° 0 mm 2 m/S 667 mmHg 27%
    15:00 +31°C° 0 mm 2 m/S 667 mmHg 28%
    16:00 +31°C° 0 mm 2 m/S 667 mmHg 28%
    17:00 +28°C° 0 mm 2 m/S 666 mmHg 35%
    18:00 +26°C° 0 mm 2 m/S 665 mmHg 42%
    19:00 +23°C° 0 mm 2 m/S 664 mmHg 49%
    20:00 +21°C° 0 mm 2 m/S 664 mmHg 52%
    21:00 +20°C° 0 mm 2 m/S 664 mmHg 55%
    22:00 +19°C° 0 mm 2 m/S 664 mmHg 58%
    23:00 +19°C° 0 mm 2 m/S 663 mmHg 59%

    Morgen, 25 Juli, Dienstag

    Zeit Temperatur Niederschläge Wind Luftdruck Luftfeuchtigkeit
    00:00 +18°C° 0 mm 3 m/S 663 mmHg 60%
    01:00 +18°C° 0 mm 3 m/S 663 mmHg 62%
    02:00 +17°C° 0 mm 2 m/S 663 mmHg 64%
    03:00 +17°C° 0 mm 2 m/S 662 mmHg 66%
    04:00 +16°C° 0 mm 2 m/S 662 mmHg 68%
    05:00 +18°C° 0 mm 2 m/S 662 mmHg 66%
    06:00 +19°C° 0 mm 2 m/S 662 mmHg 64%
    07:00 +20°C° 0 mm 2 m/S 663 mmHg 62%
    08:00 +23°C° 0 mm 2 m/S 663 mmHg 56%
    09:00 +24°C° 0 mm 3 m/S 663 mmHg 50%
    10:00 +26°C° 0 mm 3 m/S 664 mmHg 43%
    11:00 +26°C° 0 mm 4 m/S 664 mmHg 41%
    12:00 +27°C° 0 mm 4 m/S 664 mmHg 38%
    13:00 +27°C° 0 mm 5 m/S 664 mmHg 36%
    14:00 +27°C° 0 mm 5 m/S 663 mmHg 36%
    15:00 +26°C° 0 mm 4 m/S 663 mmHg 37%
    16:00 +26°C° 0 mm 4 m/S 662 mmHg 38%
    17:00 +23°C° 0 mm 4 m/S 662 mmHg 45%
    18:00 +21°C° 0 mm 3 m/S 662 mmHg 52%
    19:00 +19°C° 0 mm 2 m/S 661 mmHg 60%
    20:00 +18°C° 0 mm 2 m/S 661 mmHg 63%
    21:00 +17°C° 0 mm 2 m/S 661 mmHg 67%
    22:00 +16°C° 0 mm 2 m/S 661 mmHg 70%
    23:00 +15°C° 0 mm 2 m/S 661 mmHg 72%

    übermorgen, 26 Juli, Mittwoch

    Zeit Temperatur Niederschläge Wind Luftdruck Luftfeuchtigkeit
    00:00 +15°C° 0 mm 2 m/S 661 mmHg 74%
    01:00 +15°C° 0 mm 2 m/S 661 mmHg 75%
    02:00 +14°C° 0 mm 2 m/S 661 mmHg 77%
    03:00 +14°C° 0 mm 2 m/S 661 mmHg 78%
    04:00 +14°C° 0 mm 2 m/S 660 mmHg 80%
    05:00 +15°C° 0 mm 2 m/S 661 mmHg 75%
    06:00 +17°C° 0 mm 2 m/S 661 mmHg 70%
    07:00 +19°C° 0 mm 2 m/S 662 mmHg 65%
    08:00 +20°C° 0 mm 2 m/S 662 mmHg 59%
    09:00 +21°C° 0 mm 2 m/S 662 mmHg 54%
    10:00 +24°C° 0 mm 3 m/S 663 mmHg 48%
    11:00 +24°C° 0 mm 3 m/S 663 mmHg 46%
    12:00 +25°C° 0 mm 3 m/S 663 mmHg 45%
    13:00 +25°C° 0 mm 4 m/S 662 mmHg 44%
    14:00 +23°C° 0,1 mm 4 m/S 662 mmHg 45%
    15:00 +23°C° 0,1 mm 4 m/S 662 mmHg 46%
    16:00 +23°C° 0,1 mm 4 m/S 662 mmHg 47%
    17:00 +21°C° 0 mm 3 m/S 662 mmHg 53%
    18:00 +19°C° 0 mm 2 m/S 661 mmHg 60%
    19:00 +17°C° 0 mm 2 m/S 661 mmHg 67%
    20:00 +16°C° 0,1 mm 2 m/S 661 mmHg 72%
    21:00 +15°C° 0,1 mm 1 m/S 661 mmHg 76%
    22:00 +14°C° 0,1 mm 1 m/S 661 mmHg 81%
    23:00 +14°C° 0,1 mm 1 m/S 661 mmHg 83%

    27 Juli, Donnerstag

    Zeit Temperatur Niederschläge Wind Luftdruck Luftfeuchtigkeit
    00:00 +14°C° 0,1 mm 1 m/S 661 mmHg 84%
    01:00 +13°C° 0,1 mm 1 m/S 661 mmHg 86%
    02:00 +13°C° 0,1 mm 1 m/S 661 mmHg 87%
    03:00 +13°C° 0,1 mm 1 m/S 661 mmHg 87%
    04:00 +12°C° 0,1 mm 1 m/S 661 mmHg 88%
    05:00 +14°C° 0 mm 1 m/S 662 mmHg 82%
    06:00 +16°C° 0 mm 1 m/S 662 mmHg 76%
    07:00 +18°C° 0 mm 1 m/S 663 mmHg 69%
    08:00 +19°C° 0,1 mm 2 m/S 663 mmHg 63%
    09:00 +20°C° 0,1 mm 2 m/S 664 mmHg 57%
    10:00 +22°C° 0,1 mm 3 m/S 664 mmHg 51%
    11:00 +22°C° 0,5 mm 3 m/S 664 mmHg 49%
    12:00 +22°C° 0,5 mm 4 m/S 664 mmHg 48%
    13:00 +23°C° 0,5 mm 4 m/S 664 mmHg 47%
    14:00 +23°C° 0,5 mm 4 m/S 664 mmHg 49%
    15:00 +22°C° 0,5 mm 4 m/S 664 mmHg 50%
    16:00 +22°C° 0,5 mm 4 m/S 664 mmHg 52%
    17:00 +20°C° 0,1 mm 3 m/S 664 mmHg 58%
    18:00 +18°C° 0,1 mm 3 m/S 664 mmHg 65%
    19:00 +17°C° 0,1 mm 2 m/S 664 mmHg 71%
    20:00 +16°C° 0 mm 2 m/S 664 mmHg 75%
    21:00 +15°C° 0 mm 1 m/S 664 mmHg 78%
    22:00 +14°C° 0 mm 1 m/S 665 mmHg 81%
    23:00 +14°C° 0 mm 1 m/S 665 mmHg 81%

    28 Juli, Freitag

    Zeit Temperatur Niederschläge Wind Luftdruck Luftfeuchtigkeit
    00:00 +13°C° 0 mm 1 m/S 665 mmHg 81%
    01:00 +13°C° 0 mm 1 m/S 665 mmHg 81%
    02:00 +13°C° 0 mm 1 m/S 665 mmHg 81%
    03:00 +13°C° 0 mm 1 m/S 665 mmHg 81%
    04:00 +13°C° 0 mm 1 m/S 665 mmHg 80%
    05:00 +15°C° 0 mm 1 m/S 665 mmHg 74%
    06:00 +16°C° 0 mm 1 m/S 666 mmHg 68%
    07:00 +19°C° 0 mm 1 m/S 667 mmHg 62%
    08:00 +21°C° 0 mm 1 m/S 668 mmHg 55%
    09:00 +23°C° 0 mm 2 m/S 668 mmHg 48%
    10:00 +25°C° 0 mm 2 m/S 669 mmHg 40%
    11:00 +25°C° 0 mm 2 m/S 669 mmHg 38%
    12:00 +26°C° 0 mm 3 m/S 669 mmHg 36%
    13:00 +27°C° 0 mm 4 m/S 669 mmHg 34%
    14:00 +27°C° 0 mm 4 m/S 669 mmHg 36%
    15:00 +27°C° 0 mm 4 m/S 669 mmHg 38%
    16:00 +26°C° 0 mm 4 m/S 669 mmHg 39%
    17:00 +24°C° 0 mm 3 m/S 668 mmHg 46%
    18:00 +21°C° 0 mm 2 m/S 668 mmHg 53%
    19:00 +19°C° 0 mm 2 m/S 668 mmHg 60%
    20:00 +19°C° 0 mm 1 m/S 668 mmHg 63%
    21:00 +18°C° 0 mm 1 m/S 668 mmHg 65%
    22:00 +16°C° 0 mm 1 m/S 668 mmHg 67%
    23:00 +16°C° 0 mm 1 m/S 668 mmHg 65%

    29 Juli, Samstag

    Zeit Temperatur Niederschläge Wind Luftdruck Luftfeuchtigkeit
    00:00 +15°C° 0 mm 1 m/S 668 mmHg 63%
    01:00 +15°C° 0 mm 1 m/S 668 mmHg 61%
    02:00 +15°C° 0 mm 1 m/S 668 mmHg 59%
    03:00 +15°C° 0 mm 1 m/S 668 mmHg 56%
    04:00 +15°C° 0 mm 1 m/S 668 mmHg 54%
    05:00 +18°C° 0 mm 1 m/S 669 mmHg 50%
    06:00 +20°C° 0 mm 1 m/S 670 mmHg 46%
    07:00 +22°C° 0 mm 1 m/S 670 mmHg 43%
    08:00 +24°C° 0 mm 1 m/S 671 mmHg 38%
    09:00 +26°C° 0 mm 1 m/S 672 mmHg 34%
    10:00 +28°C° 0 mm 1 m/S 672 mmHg 30%
    11:00 +29°C° 0 mm 1 m/S 672 mmHg 29%
    12:00 +30°C° 0 mm 1 m/S 672 mmHg 27%
    13:00 +30°C° 0 mm 2 m/S 672 mmHg 26%
    14:00 +30°C° 0 mm 2 m/S 672 mmHg 27%
    15:00 +30°C° 0 mm 2 m/S 672 mmHg 28%
    16:00 +29°C° 0 mm 3 m/S 671 mmHg 30%
    17:00 +27°C° 0 mm 2 m/S 671 mmHg 36%
    18:00 +24°C° 0 mm 2 m/S 670 mmHg 42%
    19:00 +22°C° 0 mm 1 m/S 670 mmHg 49%
    20:00 +21°C° 0 mm 1 m/S 670 mmHg 51%
    21:00 +20°C° 0 mm 1 m/S 670 mmHg 53%
    22:00 +19°C° 0 mm 1 m/S 670 mmHg 55%
    23:00 +19°C° 0 mm 1 m/S 670 mmHg 54%
    Mehr zeigen